CSZ8368 ZSZS-ZHCC

Flight info

Callsign CSZ8368
Flight time N/A
Altitude 38100
Route HSN W67 BK W58 SHZ G204 UGAGO/K0848S1130 A470 TOL A599 KAKIS/K0852S1160 W135 DOGVI W545 VEMEX W163 HFE B208 FYG W596 UNTEL UNT5V
Aircraft A333/H-SDE3GHIJ2J3J5M1RVWXY/LB2D1

Departure

Time 2026-04-21 08:54
Airport Zhoushan Putuoshan International Airport (ZSZS)

Arrival

Time N/A
Airport Zhengzhou Xinzheng International Airport (ZHCC)
Time Latitude Longitude Altitude Speed Heading
2026-04-21 08:31 29.93607 122.35849 40 ft 0 kts 262°
2026-04-21 08:46 29.93607 122.35850 40 ft 1 kts 262°
2026-04-21 08:46 29.93609 122.35866 41 ft 3 kts 262°
2026-04-21 08:46 29.93611 122.35889 42 ft 3 kts 258°
2026-04-21 08:46 29.93617 122.35910 41 ft 3 kts 232°
2026-04-21 08:47 29.93631 122.35924 40 ft 3 kts 203°
2026-04-21 08:47 29.93650 122.35930 47 ft 4 kts 181°
2026-04-21 08:47 29.93663 122.35930 45 ft 3 kts 175°
2026-04-21 08:47 29.93682 122.35928 44 ft 4 kts 175°
2026-04-21 08:48 29.93691 122.35927 46 ft 0 kts 175°
2026-04-21 08:49 29.93689 122.35928 45 ft 2 kts 175°
2026-04-21 08:50 29.93629 122.35934 45 ft 12 kts 175°
2026-04-21 08:50 29.93539 122.35943 44 ft 14 kts 175°
2026-04-21 08:50 29.93470 122.35956 44 ft 7 kts 149°
2026-04-21 08:50 29.93453 122.36004 47 ft 6 kts 104°
2026-04-21 08:51 29.93423 122.36038 48 ft 8 kts 158°
2026-04-21 08:51 29.93341 122.36047 47 ft 15 kts 175°
2026-04-21 08:51 29.93232 122.36058 46 ft 18 kts 175°
2026-04-21 08:51 29.93053 122.36078 47 ft 29 kts 175°
2026-04-21 08:52 29.92858 122.36098 48 ft 27 kts 175°
2026-04-21 08:52 29.92675 122.36118 50 ft 26 kts 175°
2026-04-21 08:52 29.92496 122.36135 49 ft 26 kts 175°
2026-04-21 08:52 29.92342 122.36151 51 ft 14 kts 173°
2026-04-21 08:53 29.92309 122.36220 52 ft 9 kts 90°
2026-04-21 08:53 29.92312 122.36293 54 ft 10 kts 82°
2026-04-21 08:53 29.92384 122.36339 51 ft 14 kts 354°
2026-04-21 08:53 29.92405 122.36337 55 ft 13 kts 354°
2026-04-21 08:54 29.92744 122.36300 54 ft 84 kts 355°
2026-04-21 08:54 29.93546 122.36219 51 ft 145 kts 356°
2026-04-21 08:54 29.94667 122.36129 466 ft 170 kts
2026-04-21 08:54 29.95849 122.36005 1301 ft 168 kts 359°
2026-04-21 08:55 29.97022 122.35874 1980 ft 180 kts 360°
2026-04-21 08:55 29.98376 122.35666 2242 ft 222 kts 345°
2026-04-21 08:55 29.99792 122.34693 2732 ft 249 kts 320°
2026-04-21 08:55 30.01045 122.33201 3351 ft 268 kts 302°
2026-04-21 08:56 30.01691 122.31182 3974 ft 271 kts 269°
2026-04-21 08:56 30.01268 122.29143 4863 ft 259 kts 235°
2026-04-21 08:56 29.99964 122.27824 5778 ft 250 kts 201°
2026-04-21 08:56 29.98251 122.27623 6669 ft 253 kts 170°
2026-04-21 08:57 29.96639 122.28485 7444 ft 264 kts 144°
2026-04-21 08:57 29.95438 122.30144 8228 ft 276 kts 127°
2026-04-21 08:57 29.94292 122.31946 9014 ft 280 kts 135°
2026-04-21 08:57 29.92907 122.33538 9817 ft 282 kts 146°
2026-04-21 08:58 29.91223 122.34717 10413 ft 288 kts 162°
2026-04-21 08:58 29.89217 122.35125 10662 ft 303 kts 187°
2026-04-21 08:58 29.87180 122.34373 10904 ft 317 kts 215°
2026-04-21 08:58 29.85653 122.32528 11410 ft 325 kts 240°
2026-04-21 08:59 29.84783 122.30104 12121 ft 329 kts 254°
2026-04-21 08:59 29.84296 122.27524 12893 ft 332 kts 261°
2026-04-21 08:59 29.83973 122.24873 13665 ft 336 kts 263°
2026-04-21 08:59 29.83684 122.22189 14325 ft 340 kts 263°
2026-04-21 09:00 29.83367 122.19476 14952 ft 344 kts 262°
2026-04-21 09:00 29.83002 122.16729 15580 ft 348 kts 261°
2026-04-21 09:00 29.82596 122.14002 16198 ft 352 kts 261°
2026-04-21 09:00 29.82151 122.11217 16834 ft 356 kts 260°
2026-04-21 09:01 29.81683 122.08393 17440 ft 361 kts 259°
2026-04-21 09:01 29.81204 122.05545 18089 ft 363 kts 259°
2026-04-21 09:01 29.80721 122.02687 18703 ft 364 kts 259°
2026-04-21 09:01 29.80237 121.99815 19232 ft 367 kts 259°
2026-04-21 09:02 29.79750 121.96915 19741 ft 369 kts 259°
2026-04-21 09:02 29.79265 121.94018 20279 ft 372 kts 259°
2026-04-21 09:02 29.78774 121.91079 20819 ft 374 kts 259°
2026-04-21 09:03 29.77785 121.85167 21861 ft 378 kts 259°
2026-04-21 09:03 29.77286 121.82191 22399 ft 380 kts 259°